| time (UTC) | temp F | wind direction | speed knots | gust knots | rain 1hr in | rain 24hr in | rain mn in | humidity % | barometer mb |
| 20260903074524 | 82 | 157 | 0.0 | 0.0 | 0.00 | 0.00 | 0.00 | 69 | 1013.4 |
| 20260903073036 | 82 | 157 | 0.0 | 0.0 | 0.00 | 0.00 | 0.00 | 69 | 1013.4 |
| 20260903071522 | 82 | 157 | 0.0 | 0.0 | 0.00 | 0.00 | 0.00 | 69 | 1013.4 |
| 20260903070031 | 83 | 157 | 0.0 | 0.0 | 0.00 | 0.00 | 0.00 | 69 | 1013.5 |
| 20260903064519 | 83 | 157 | 0.0 | 0.0 | 0.00 | 0.00 | 0.00 | 68 | 1013.5 |
| 20260903063018 | 83 | 156 | 0.0 | 0.0 | 0.00 | 0.00 | 0.00 | 68 | 1013.5 |
| 20260903061530 | 84 | 156 | 0.0 | 0.0 | 0.00 | 0.00 | 0.00 | 67 | 1013.5 |
| 20260903060013 | 84 | 155 | 0.0 | 0.0 | 0.00 | 0.00 | 0.00 | 67 | 1013.5 |
| 20260903054514 | 84 | 148 | 0.0 | 0.0 | 0.00 | 0.00 | 0.00 | 67 | 1013.5 |
| 20260903053011 | 84 | 148 | 0.0 | 0.0 | 0.00 | 0.00 | 0.00 | 67 | 1013.5 |
| 20260903051508 | 85 | 212 | 0.0 | 0.0 | 0.00 | 0.00 | 0.00 | 67 | 1013.6 |
| 20260903050008 | 85 | 212 | 0.0 | 0.0 | 0.00 | 0.00 | 0.00 | 66 | 1013.5 |
| 20260903044507 | 85 | 212 | 0.0 | 0.0 | 0.00 | 0.00 | 0.00 | 65 | 1013.4 |
| 20260903043006 | 86 | 209 | 0.0 | 0.0 | 0.00 | 0.00 | 0.00 | 65 | 1013.3 |
| 20260903041505 | 86 | 153 | 0.0 | 0.0 | 0.00 | 0.00 | 0.00 | 64 | 1013.3 |
| 20260903040008 | 86 | 228 | 0.0 | 0.0 | 0.00 | 0.00 | 0.00 | 64 | 1013.3 |
| 20260903034509 | 87 | 219 | 0.0 | 0.0 | 0.00 | 0.00 | 0.00 | 64 | 1013.4 |
| 20260903033004 | 87 | 182 | 0.0 | 2.6 | 0.00 | 0.00 | 0.00 | 63 | 1013.4 |
| 20260903031504 | 87 | 137 | 0.0 | 0.0 | 0.00 | 0.00 | 0.00 | 63 | 1013.4 |
| 20260903030003 | 87 | 127 | 0.0 | 0.0 | 0.00 | 0.00 | 0.00 | 63 | 1013.4 |
| 20260903024502 | 88 | 281 | 0.0 | 0.0 | 0.00 | 0.00 | 0.00 | 62 | 1013.4 |
| 20260903023002 | 88 | 130 | 0.0 | 0.9 | 0.00 | 0.00 | 0.00 | 60 | 1013.3 |
| 20260903021502 | 89 | 201 | 0.0 | 0.9 | 0.00 | 0.00 | 0.00 | 59 | 1013.2 |
| 20260903020001 | 89 | 166 | 0.0 | 0.0 | 0.00 | 0.00 | 0.00 | 57 | 1013.1 |
| 20260903014500 | 90 | 178 | 0.0 | 0.0 | 0.00 | 0.00 | 0.00 | 55 | 1013.0 |
| 20260903013104 | 91 | 148 | 0.0 | 2.6 | 0.00 | 0.00 | 0.00 | 54 | 1012.8 |
| 20260903011609 | 91 | 151 | 0.0 | 0.0 | 0.00 | 0.00 | 0.00 | 53 | 1012.6 |
| 20260903010117 | 92 | 152 | 0.0 | 0.0 | 0.00 | 0.00 | 0.00 | 51 | 1012.4 |
| 20260903004559 | 93 | 232 | 0.0 | 0.0 | 0.00 | 0.00 | 0.00 | 48 | 1012.5 |
| 20260903003104 | 94 | 232 | 0.0 | 0.0 | 0.00 | 0.00 | 0.00 | 46 | 1012.4 |
| 20260903001600 | 95 | 238 | 0.0 | 0.0 | 0.00 | 0.00 | 0.00 | 45 | 1012.4 |
| 20260903000057 | 95 | 121 | 0.0 | 0.0 | 0.00 | 0.00 | 0.00 | 44 | 1012.4 |
| 20260902234556 | 96 | 144 | 0.0 | 0.0 | 0.00 | 0.00 | 0.00 | 43 | 1012.4 |
| 20260902233057 | 96 | 156 | 0.0 | 0.0 | 0.00 | 0.00 | 0.00 | 42 | 1012.3 |
| 20260902231609 | 96 | 152 | 0.0 | 3.5 | 0.00 | 0.00 | 0.00 | 43 | 1012.4 |
| 20260902230055 | 96 | 280 | 0.0 | 0.0 | 0.00 | 0.00 | 0.00 | 43 | 1012.3 |
| 20260902224604 | 96 | 137 | 0.0 | 0.0 | 0.00 | 0.00 | 0.00 | 41 | 1012.3 |
| 20260902223056 | 97 | 173 | 0.0 | 0.0 | 0.00 | 0.00 | 0.00 | 41 | 1012.3 |
| 20260902221608 | 98 | 156 | 0.0 | 1.7 | 0.00 | 0.00 | 0.00 | 41 | 1012.4 |
| 20260902220058 | 98 | 111 | 0.0 | 0.0 | 0.00 | 0.00 | 0.00 | 41 | 1012.4 |
| 20260902214551 | 99 | 231 | 0.0 | 0.0 | 0.00 | 0.00 | 0.00 | 40 | 1012.5 |
| 20260902213049 | 99 | 107 | 0.0 | 1.7 | 0.00 | 0.00 | 0.00 | 41 | 1012.6 |
| 20260902211548 | 99 | 142 | 0.0 | 0.0 | 0.00 | 0.00 | 0.00 | 40 | 1012.8 |
| 20260902210048 | 99 | 197 | 0.0 | 1.7 | 0.00 | 0.00 | 0.00 | 40 | 1012.9 |
| 20260902204548 | 98 | 246 | 0.0 | 3.5 | 0.00 | 0.00 | 0.00 | 42 | 1013.1 |
| 20260902203044 | 98 | 290 | 0.0 | 0.0 | 0.00 | 0.00 | 0.00 | 44 | 1013.2 |
| 20260902201548 | 98 | 259 | 0.0 | 0.9 | 0.00 | 0.00 | 0.00 | 42 | 1013.3 |
| 20260902200036 | 98 | 241 | 0.0 | 0.9 | 0.00 | 0.00 | 0.00 | 44 | 1013.5 |
| 20260902194536 | 97 | 296 | 0.0 | 4.3 | 0.00 | 0.00 | 0.00 | 43 | 1013.7 |
| 20260902193042 | 98 | 228 | 0.0 | 2.6 | 0.00 | 0.00 | 0.00 | 45 | 1013.7 |
| 20260902191530 | 98 | 243 | 0.0 | 1.7 | 0.00 | 0.00 | 0.00 | 47 | 1014.0 |
| 20260902190027 | 96 | 198 | 0.0 | 3.5 | 0.00 | 0.00 | 0.00 | 46 | 1014.2 |
| 20260902184526 | 97 | 138 | 0.0 | 0.9 | 0.00 | 0.00 | 0.00 | 47 | 1014.4 |
| 20260902183028 | 96 | 166 | 0.0 | 7.8 | 0.00 | 0.00 | 0.00 | 48 | 1014.5 |
| 20260902181523 | 96 | 215 | 0.0 | 7.0 | 0.00 | 0.00 | 0.00 | 47 | 1014.6 |
| 20260902180020 | 95 | 280 | 0.0 | 9.6 | 0.00 | 0.00 | 0.00 | 50 | 1014.7 |
| 20260902174523 | 95 | 169 | 0.0 | 0.0 | 0.00 | 0.00 | 0.00 | 53 | 1014.9 |
| 20260902173021 | 95 | 232 | 0.0 | 8.7 | 0.00 | 0.00 | 0.00 | 51 | 1015.2 |
| 20260902171516 | 94 | 260 | 0.0 | 2.6 | 0.00 | 0.00 | 0.00 | 53 | 1015.4 |
| 20260902170011 | 94 | 360 | 0.0 | 6.1 | 0.00 | 0.00 | 0.00 | 53 | 1015.7 |
| 20260902164507 | 94 | 330 | 0.9 | 9.6 | 0.00 | 0.00 | 0.00 | 51 | 1015.8 |
| 20260902163004 | 94 | 228 | 0.0 | 6.1 | 0.00 | 0.00 | 0.00 | 53 | 1015.8 |
| 20260902161602 | 92 | 199 | 0.0 | 2.6 | 0.00 | 0.00 | 0.00 | 55 | 1015.8 |
| 20260902160108 | 92 | 203 | 0.0 | 6.1 | 0.00 | 0.00 | 0.00 | 54 | 1016.0 |
| 20260902154554 | 91 | 213 | 0.0 | 2.6 | 0.00 | 0.00 | 0.00 | 57 | 1016.1 |
| 20260902153054 | 90 | 221 | 0.0 | 7.0 | 0.00 | 0.00 | 0.00 | 57 | 1015.9 |
| 20260902151548 | 90 | 327 | 0.0 | 7.8 | 0.00 | 0.00 | 0.00 | 58 | 1015.8 |
| 20260902150046 | 89 | 229 | 0.0 | 2.6 | 0.00 | 0.00 | 0.00 | 60 | 1015.9 |
| 20260902144542 | 88 | 256 | 0.0 | 4.3 | 0.00 | 0.00 | 0.00 | 60 | 1015.9 |
| 20260902143041 | 87 | 230 | 0.0 | 4.3 | 0.00 | 0.00 | 0.00 | 63 | 1015.9 |
| 20260902141537 | 86 | 254 | 0.0 | 1.7 | 0.00 | 0.00 | 0.00 | 64 | 1015.9 |
| 20260902140032 | 85 | 237 | 0.0 | 0.9 | 0.00 | 0.00 | 0.00 | 67 | 1016.0 |
| 20260902134535 | 84 | 196 | 0.0 | 1.7 | 0.00 | 0.00 | 0.00 | 68 | 1016.2 |
| 20260902133030 | 83 | 313 | 0.0 | 0.0 | 0.00 | 0.00 | 0.00 | 69 | 1016.2 |
| 20260902131539 | 82 | 245 | 0.0 | 1.7 | 0.00 | 0.00 | 0.00 | 70 | 1016.3 |
| 20260902130027 | 82 | 209 | 0.0 | 0.0 | 0.00 | 0.00 | 0.00 | 70 | 1016.1 |
| 20260902124528 | 81 | 313 | 0.0 | 0.0 | 0.00 | 0.00 | 0.00 | 71 | 1016.0 |
| 20260902123029 | 81 | 313 | 0.0 | 0.0 | 0.00 | 0.00 | 0.00 | 71 | 1015.9 |
| 20260902121524 | 80 | 314 | 0.0 | 0.0 | 0.00 | 0.00 | 0.00 | 71 | 1015.8 |
| 20260902120022 | 80 | 167 | 0.0 | 0.0 | 0.00 | 0.00 | 0.00 | 71 | 1015.7 |
| 20260902114520 | 81 | 166 | 0.0 | 0.0 | 0.00 | 0.00 | 0.00 | 70 | 1015.5 |
| 20260902113018 | 81 | 166 | 0.0 | 0.0 | 0.00 | 0.00 | 0.00 | 70 | 1015.5 |
| 20260902111518 | 81 | 166 | 0.0 | 0.0 | 0.00 | 0.00 | 0.00 | 69 | 1015.4 |
| 20260902110020 | 82 | 190 | 0.0 | 3.5 | 0.00 | 0.00 | 0.00 | 68 | 1015.2 |
| 20260902104514 | 82 | 224 | 0.0 | 0.0 | 0.00 | 0.00 | 0.00 | 68 | 1015.2 |
| 20260902103013 | 82 | 213 | 0.0 | 1.7 | 0.00 | 0.00 | 0.00 | 68 | 1015.2 |
| 20260902101513 | 82 | 213 | 0.0 | 0.9 | 0.00 | 0.00 | 0.00 | 67 | 1015.1 |
| 20260902100014 | 82 | 219 | 0.0 | 0.0 | 0.00 | 0.00 | 0.00 | 67 | 1015.0 |
| 20260902094510 | 83 | 217 | 0.0 | 0.9 | 0.00 | 0.00 | 0.00 | 67 | 1014.9 |
| 20260902093019 | 82 | 182 | 0.0 | 7.0 | 0.00 | 0.00 | 0.00 | 68 | 1014.8 |
| 20260902091509 | 82 | 259 | 0.0 | 0.9 | 0.00 | 0.00 | 0.00 | 69 | 1014.8 |
| 20260902090008 | 81 | 211 | 0.0 | 1.7 | 0.00 | 0.00 | 0.00 | 71 | 1014.6 |
| 20260902084508 | 81 | 211 | 0.0 | 0.0 | 0.00 | 0.00 | 0.00 | 70 | 1014.7 |
| 20260902083006 | 81 | 211 | 0.0 | 0.0 | 0.00 | 0.00 | 0.00 | 71 | 1014.6 |
| 20260902081506 | 82 | 211 | 0.0 | 0.0 | 0.00 | 0.00 | 0.00 | 71 | 1014.6 |
| 20260902080004 | 82 | 211 | 0.0 | 0.0 | 0.00 | 0.00 | 0.00 | 71 | 1014.5 |